• In Deutschland
  • Länderverzeichnis
  • Für 7 Tage
  • Wassertemperatur
  • Satellitenkarten
  • Wetterkarte
  • Widgets
  • user-avatar
    Anmelden

    Stündliche Wetter Prutz

    Heute, 24 November, Freitag

    Zeit Temperatur Niederschläge Wind Luftdruck Luftfeuchtigkeit
    00:00 -1°C° 0 mm 2 m/S 632 mmHg 71%
    01:00 +1°C° 0 mm 2 m/S 632 mmHg 71%
    02:00 -1°C° 0 mm 2 m/S 632 mmHg 73%
    03:00 -1°C° 0 mm 2 m/S 632 mmHg 74%
    04:00 -2°C° 0 mm 2 m/S 632 mmHg 76%
    05:00 -2°C° 0 mm 2 m/S 632 mmHg 77%
    06:00 -2°C° 0 mm 2 m/S 632 mmHg 77%
    07:00 -2°C° 0 mm 2 m/S 632 mmHg 79%
    08:00 -1°C° 0 mm 2 m/S 632 mmHg 79%
    09:00 +2°C° 0 mm 2 m/S 633 mmHg 78%
    10:00 +3°C° 0 mm 2 m/S 633 mmHg 77%
    11:00 +4°C° 0 mm 2 m/S 633 mmHg 79%
    12:00 +5°C° 0 mm 2 m/S 633 mmHg 80%
    13:00 +6°C° 0 mm 2 m/S 633 mmHg 82%
    14:00 +5°C° 0 mm 2 m/S 633 mmHg 82%
    15:00 +4°C° 0 mm 2 m/S 632 mmHg 83%
    16:00 +4°C° 0 mm 2 m/S 632 mmHg 83%
    17:00 +3°C° 0 mm 2 m/S 632 mmHg 84%
    18:00 +2°C° 0 mm 2 m/S 632 mmHg 84%
    19:00 +2°C° 0 mm 2 m/S 632 mmHg 85%
    20:00 +1°C° 0 mm 2 m/S 632 mmHg 86%
    21:00 +1°C° 0 mm 2 m/S 631 mmHg 87%
    22:00 -1°C° 0 mm 2 m/S 631 mmHg 87%
    23:00 -1°C° 0 mm 2 m/S 631 mmHg 88%

    Morgen, 25 November, Samstag

    Zeit Temperatur Niederschläge Wind Luftdruck Luftfeuchtigkeit
    00:00 -1°C° 0 mm 3 m/S 631 mmHg 89%
    01:00 -1°C° 0 mm 3 m/S 631 mmHg 89%
    02:00 -1°C° 0 mm 3 m/S 630 mmHg 89%
    03:00 -1°C° 0 mm 3 m/S 629 mmHg 89%
    04:00 -2°C° 0 mm 3 m/S 629 mmHg 89%
    05:00 -1°C° 0 mm 3 m/S 628 mmHg 88%
    06:00 -2°C° 0 mm 4 m/S 628 mmHg 88%
    07:00 -2°C° 0 mm 4 m/S 627 mmHg 87%
    08:00 -1°C° 0 mm 4 m/S 627 mmHg 87%
    09:00 0°C° 0 mm 4 m/S 627 mmHg 86%
    10:00 +2°C° 0 mm 3 m/S 628 mmHg 85%
    11:00 +2°C° 0,8 mm 3 m/S 628 mmHg 88%
    12:00 +3°C° 0,8 mm 2 m/S 628 mmHg 91%
    13:00 +3°C° 0,8 mm 2 m/S 628 mmHg 94%
    14:00 +2°C° 1,3 mm 2 m/S 628 mmHg 94%
    15:00 +2°C° 1,3 mm 2 m/S 628 mmHg 95%
    16:00 +1°C° 1,3 mm 2 m/S 628 mmHg 95%
    17:00 -1°C° 0,7 mm 2 m/S 628 mmHg 95%
    18:00 -1°C° 0,7 mm 2 m/S 628 mmHg 95%
    19:00 -2°C° 0,7 mm 2 m/S 628 mmHg 95%
    20:00 -3°C° 0,4 mm 2 m/S 628 mmHg 95%
    21:00 -3°C° 0,4 mm 2 m/S 628 mmHg 95%
    22:00 -4°C° 0,4 mm 2 m/S 629 mmHg 95%
    23:00 -4°C° 0,3 mm 2 m/S 629 mmHg 95%

    übermorgen, 26 November, Sonntag

    Zeit Temperatur Niederschläge Wind Luftdruck Luftfeuchtigkeit
    00:00 -4°C° 0,3 mm 2 m/S 629 mmHg 95%
    01:00 -5°C° 0,3 mm 3 m/S 629 mmHg 95%
    02:00 -5°C° 0,4 mm 3 m/S 629 mmHg 95%
    03:00 -6°C° 0,4 mm 3 m/S 629 mmHg 95%
    04:00 -6°C° 0,4 mm 3 m/S 630 mmHg 95%
    05:00 -6°C° 0,6 mm 3 m/S 630 mmHg 95%
    06:00 -7°C° 0,6 mm 3 m/S 630 mmHg 94%
    07:00 -7°C° 0,6 mm 3 m/S 631 mmHg 94%
    08:00 -7°C° 0,3 mm 3 m/S 631 mmHg 92%
    09:00 -7°C° 0,3 mm 3 m/S 632 mmHg 90%
    10:00 -7°C° 0,3 mm 3 m/S 633 mmHg 88%
    11:00 -7°C° 0,1 mm 3 m/S 633 mmHg 86%
    12:00 -7°C° 0,1 mm 3 m/S 633 mmHg 83%
    13:00 -7°C° 0,1 mm 3 m/S 633 mmHg 80%
    14:00 -8°C° 0 mm 3 m/S 633 mmHg 83%
    15:00 -8°C° 0 mm 2 m/S 633 mmHg 86%
    16:00 -9°C° 0 mm 2 m/S 633 mmHg 89%
    17:00 -10°C° 0 mm 2 m/S 633 mmHg 90%
    18:00 -12°C° 0 mm 2 m/S 633 mmHg 91%
    19:00 -13°C° 0 mm 2 m/S 633 mmHg 93%
    20:00 -13°C° 0 mm 2 m/S 634 mmHg 92%
    21:00 -13°C° 0 mm 2 m/S 634 mmHg 91%
    22:00 -13°C° 0 mm 2 m/S 634 mmHg 91%
    23:00 -13°C° 0 mm 2 m/S 634 mmHg 91%

    27 November, Montag

    Zeit Temperatur Niederschläge Wind Luftdruck Luftfeuchtigkeit
    00:00 -13°C° 0 mm 2 m/S 634 mmHg 90%
    01:00 -11°C° 0 mm 1 m/S 634 mmHg 90%
    02:00 -11°C° 0 mm 1 m/S 634 mmHg 91%
    03:00 -12°C° 0 mm 1 m/S 634 mmHg 91%
    04:00 -12°C° 0 mm 1 m/S 634 mmHg 92%
    05:00 -12°C° 0 mm 1 m/S 634 mmHg 92%
    06:00 -12°C° 0 mm 1 m/S 635 mmHg 91%
    07:00 -12°C° 0 mm 1 m/S 635 mmHg 91%
    08:00 -11°C° 0 mm 1 m/S 635 mmHg 88%
    09:00 -9°C° 0 mm 1 m/S 636 mmHg 84%
    10:00 -7°C° 0 mm 1 m/S 636 mmHg 81%
    11:00 -6°C° 0 mm 1 m/S 636 mmHg 76%
    12:00 -4°C° 0 mm 1 m/S 636 mmHg 72%
    13:00 -2°C° 0 mm 1 m/S 636 mmHg 67%
    14:00 -4°C° 0 mm 1 m/S 635 mmHg 72%
    15:00 -6°C° 0 mm 1 m/S 635 mmHg 78%
    16:00 -7°C° 0 mm 1 m/S 634 mmHg 83%
    17:00 -8°C° 0 mm 1 m/S 634 mmHg 81%
    18:00 -9°C° 0 mm 1 m/S 634 mmHg 80%
    19:00 -10°C° 0 mm 1 m/S 633 mmHg 78%
    20:00 -10°C° 0 mm 1 m/S 633 mmHg 74%
    21:00 -10°C° 0 mm 1 m/S 633 mmHg 69%
    22:00 -9°C° 0 mm 1 m/S 633 mmHg 64%
    23:00 -10°C° 0 mm 2 m/S 633 mmHg 62%

    28 November, Dienstag

    Zeit Temperatur Niederschläge Wind Luftdruck Luftfeuchtigkeit
    00:00 -10°C° 0 mm 2 m/S 632 mmHg 60%
    01:00 -10°C° 0 mm 2 m/S 632 mmHg 57%
    02:00 -10°C° 0 mm 2 m/S 632 mmHg 57%
    03:00 -9°C° 0 mm 2 m/S 631 mmHg 56%
    04:00 -9°C° 0 mm 2 m/S 631 mmHg 55%
    05:00 -9°C° 0 mm 2 m/S 630 mmHg 56%
    06:00 -9°C° 0 mm 2 m/S 630 mmHg 56%
    07:00 -9°C° 0 mm 2 m/S 630 mmHg 56%
    08:00 -7°C° 0 mm 2 m/S 630 mmHg 58%
    09:00 -5°C° 0 mm 2 m/S 630 mmHg 61%
    10:00 -4°C° 0 mm 2 m/S 630 mmHg 63%
    11:00 -3°C° 0 mm 2 m/S 630 mmHg 64%
    12:00 -2°C° 0 mm 2 m/S 629 mmHg 65%
    13:00 -1°C° 0 mm 2 m/S 629 mmHg 65%
    14:00 -2°C° 0 mm 2 m/S 628 mmHg 69%
    15:00 -3°C° 0 mm 2 m/S 627 mmHg 72%
    16:00 -4°C° 0 mm 2 m/S 626 mmHg 76%
    17:00 -5°C° 0 mm 2 m/S 626 mmHg 76%
    18:00 -5°C° 0 mm 2 m/S 626 mmHg 75%
    19:00 -6°C° 0 mm 2 m/S 625 mmHg 75%
    20:00 -6°C° 0 mm 2 m/S 625 mmHg 75%
    21:00 -8°C° 0 mm 3 m/S 625 mmHg 75%
    22:00 -8°C° 0 mm 3 m/S 624 mmHg 74%
    23:00 -8°C° 0 mm 3 m/S 624 mmHg 76%

    29 November, Mittwoch

    Zeit Temperatur Niederschläge Wind Luftdruck Luftfeuchtigkeit
    00:00 -8°C° 0 mm 3 m/S 624 mmHg 77%
    01:00 -9°C° 0 mm 3 m/S 624 mmHg 78%
    02:00 -8°C° 0 mm 2 m/S 623 mmHg 79%
    03:00 -8°C° 0 mm 2 m/S 623 mmHg 81%
    04:00 -8°C° 0 mm 2 m/S 623 mmHg 82%
    05:00 -7°C° 0 mm 2 m/S 623 mmHg 83%
    06:00 -7°C° 0 mm 2 m/S 623 mmHg 84%
    07:00 -7°C° 0 mm 2 m/S 622 mmHg 85%
    08:00 -6°C° 0,1 mm 2 m/S 623 mmHg 85%
    09:00 -5°C° 0,1 mm 2 m/S 623 mmHg 85%
    10:00 -4°C° 0,1 mm 2 m/S 623 mmHg 85%
    11:00 -4°C° 0,3 mm 2 m/S 623 mmHg 85%
    12:00 -4°C° 0,3 mm 2 m/S 622 mmHg 86%
    13:00 -3°C° 0,3 mm 2 m/S 622 mmHg 86%
    14:00 -1°C° 0,7 mm 1 m/S 622 mmHg 89%
    15:00 -2°C° 0,7 mm 1 m/S 622 mmHg 92%
    16:00 -2°C° 0,7 mm 1 m/S 621 mmHg 94%
    17:00 -3°C° 0,7 mm 1 m/S 621 mmHg 95%
    18:00 -3°C° 0,7 mm 1 m/S 621 mmHg 95%
    19:00 -4°C° 0,7 mm 1 m/S 621 mmHg 96%
    20:00 -6°C° 0,4 mm 2 m/S 621 mmHg 96%
    21:00 -6°C° 0,4 mm 2 m/S 621 mmHg 95%
    22:00 -7°C° 0,4 mm 2 m/S 621 mmHg 95%
    23:00 -7°C° 0,3 mm 2 m/S 621 mmHg 95%
    Mehr zeigen